Address 0x333d17d3b42bf7930dbc6e852ca7bcf560a69003 3

Txn Hash Method
Block
From
To
Value [Txn Fee]
0x30fafeb695f454caec11f2605514ccf9a47e2f1ea205b6d9d94b539da409a8c8Transfer231496102022-12-03 6:03:5331 mins ago0x333d17d3b42bf7930dbc6e852ca7bcf560a69003OUT0xef07b4cb6c4dc861493d47513186b6ab506709593.71333086 AVAX0.00052525
0xa02a6351954e09380431baadc22da418179a6d37e47a1ef179d6f09a01dc2f63Transfer231495442022-12-03 6:01:3734 mins ago0x333d17d3b42bf7930dbc6e852ca7bcf560a69003OUT0xef07b4cb6c4dc861493d47513186b6ab506709590.1 AVAX0.00052525
0x03d36d854ca1ef746728526bb7b364dbbbb6889d9135dd24e563589e9cf3b79dTransfer231492912022-12-03 5:52:5542 mins ago0x333d17d3b42bf7930dbc6e852ca7bcf560a69003OUT0xe7f52bef76175ca878856b0c912c8d2e8e703ecc7.42666172 AVAX0.00052525
0x87b9f371ffa739aa92901cf477ad6991322090cb2825a2a58d4f4529db516eceTransfer231487132022-12-03 5:33:001 hr 2 mins ago0x333d17d3b42bf7930dbc6e852ca7bcf560a69003OUT0x3675d22bccc5c29b2c60e346cd4afa0115cd8d0b74.72811847 AVAX0.00052525
0x93521addd19eda4823ca94660642da435dc7c5725d71c42ea4fbc1848c464a43Transfer231484842022-12-03 5:25:071 hr 10 mins ago0x333d17d3b42bf7930dbc6e852ca7bcf560a69003OUT0xe33f6a19f859669b1ebc087e0275f4137812e5e329.45233466 AVAX0.00052525
0xcf71333a158c93948f5ccaff0ed3e3195d4b5bf6f20dab365a858042962cac35Transfer231478342022-12-03 5:02:551 hr 32 mins ago0x333d17d3b42bf7930dbc6e852ca7bcf560a69003OUT0x17850ae51422f3ff20244931198213e8f56491c510.3973264 AVAX0.00052525
0x45f0f946ae107bd3055aa0e0282d35d8505413a83a8f4607fe20942571a84b03Transfer231477102022-12-03 4:58:451 hr 36 mins ago0x9fb89daa3d93be9fe8ef68fc0198d073ab15d902 IN 0x333d17d3b42bf7930dbc6e852ca7bcf560a69003502.11019306 AVAX0.00052525
0x79066522b6d765b0abf57a2cf4c62d5c06cd3cc274f57b76849e30b76d8a420fTransfer231475502022-12-03 4:53:151 hr 42 mins ago0x333d17d3b42bf7930dbc6e852ca7bcf560a69003OUT0x2f3a6beb9ae0901347ae820d07c3d9005bb5f22e1.05884362 AVAX0.00052525
0x3b92367dc44b2d8c34ed2c205cbd3821f52b24c2ccd315df1381e9b16e4fdde6Transfer231474262022-12-03 4:48:581 hr 46 mins ago0x333d17d3b42bf7930dbc6e852ca7bcf560a69003OUT Pangolin: PNG Token0 AVAX0.00144117525
0x0f771d370e2ca53da2f10b148c19cfe8d85df59aaff636aa72f7b07bac6fe688Transfer231473952022-12-03 4:47:501 hr 47 mins ago0x333d17d3b42bf7930dbc6e852ca7bcf560a69003OUT Benqi Finance: QI Token0 AVAX0.0014367525
0xc40193526c755d071720bfd04c5662296ff3a25ee49eb51414a761974a0f4e3fTransfer231473552022-12-03 4:46:241 hr 49 mins ago0x333d17d3b42bf7930dbc6e852ca7bcf560a69003OUT0xc64c53e5cacd857b9be14969401f3dbb71b2b31d1.10579759 AVAX0.00052525
0x77a46f2784b4007a992ba762c28023c6b74c35dbd28d9c3ba21e3ae6a09506feTransfer231470702022-12-03 4:36:471 hr 58 mins ago0xe8662b34ad3870f9c583b1aee0edcd6290f07977 IN 0x333d17d3b42bf7930dbc6e852ca7bcf560a6900328.9994225 AVAX0.00052525
0x874a5e3d0264bbb48e1fda033d67663e0ca803e9390a42415b466f44934950cdTransfer231470062022-12-03 4:34:372 hrs 1 min ago0x333d17d3b42bf7930dbc6e852ca7bcf560a69003OUT0x855c07750733a9f1679e67cd15b5de98a8c16dc111.41504056 AVAX0.00052525
0x6055e2eceb5afa013539da7686ca5515f7b1298665b099c02718836046edcf6fTransfer231468592022-12-03 4:29:302 hrs 6 mins ago0x333d17d3b42bf7930dbc6e852ca7bcf560a69003OUT Benqi Finance: QI Token0 AVAX0.0014361525
0x0badf5b6499947dd7d7fea7120ff86690cf0a2130b2dc1d3e1acad8198911669Transfer231466322022-12-03 4:21:372 hrs 14 mins ago0xc2c85f7c37072fa22ae29cdaaa4b5b71232c98fa IN 0x333d17d3b42bf7930dbc6e852ca7bcf560a690030.9994225 AVAX0.00052525
0x3723bae8d1a8afd09be05330e008f6a348cd02b8de91cd1d0917691d4014dc11Transfer231466032022-12-03 4:20:392 hrs 15 mins ago0x5779a6a2e41cc0656b143a2087c3aa513e0c9fb9 IN 0x333d17d3b42bf7930dbc6e852ca7bcf560a6900310.004811052485171 AVAX0.00052525
0x808adeff4452cad0405a6cd477680a956c7492f94422761580f597d4a2e8444cTransfer231465472022-12-03 4:18:392 hrs 17 mins ago0x897bcbca3f124ca2b59de6585cc80df9360448b0 IN 0x333d17d3b42bf7930dbc6e852ca7bcf560a690030.899475 AVAX0.00052525
0x4c8c06e4d92b505ead558fccc62567a687353f95cf844d410a780a084ba0e9d7Transfer231463102022-12-03 4:10:392 hrs 25 mins ago0x333d17d3b42bf7930dbc6e852ca7bcf560a69003OUT0xb5a50fef96ab91b5ac938cf2744f76ffd55d405c0.44625581 AVAX0.00052525
0xe9cc6e97e48abad69520ba311fa7994527b680197b11947abf39945cbbf3d8c1Transfer231460822022-12-03 4:02:522 hrs 32 mins ago0xd0d03717b7acb418c3ab204d84592873476e2a77 IN 0x333d17d3b42bf7930dbc6e852ca7bcf560a690034.06791787 AVAX0.00052525
0xb9ead4900b78a9afdd0019d472e0de9026c1d4c020996bfa008110c396004fbaTransfer231459882022-12-03 3:59:362 hrs 36 mins ago0xb18d250292406d89db3f411b7e2c3bec78668258 IN 0x333d17d3b42bf7930dbc6e852ca7bcf560a690031.2374225 AVAX0.00052525
0xea1ea019013647eb20147b288cd5b54cb9a88e4679e6b4b1668e741ad66a59d0Transfer231457492022-12-03 3:51:292 hrs 44 mins ago0x333d17d3b42bf7930dbc6e852ca7bcf560a69003OUT0x937edc5a12b395760b09556fbb6091c6045b92f726.92121642 AVAX0.00052525
0x215236396f65cce6fc87107cbe1ad148ddcced3a3751c02fbfeb711d945e4006Transfer231457392022-12-03 3:51:092 hrs 44 mins ago0x333d17d3b42bf7930dbc6e852ca7bcf560a69003OUT0xfebfec26811fb24294dc70819979a5206ac3cd237.097286 AVAX0.00052525
0xbe4bb589d3b0bce652bf456b29cdfb7d31862af70e4b9a93d50e5d4e2797aa55Transfer231452972022-12-03 3:35:373 hrs ago0x116899089f49b5837fd91b093b3f6d9304043773 IN 0x333d17d3b42bf7930dbc6e852ca7bcf560a6900322.201575 AVAX0.00052525
0x8d065942eaab50d9eb326265a00c52e90da4b7f1cabfee06bbd0dbf7a04d9317Transfer231449752022-12-03 3:24:383 hrs 11 mins ago0x116899089f49b5837fd91b093b3f6d9304043773 IN 0x333d17d3b42bf7930dbc6e852ca7bcf560a6900311.209875 AVAX0.00052525
0x00f0f903543c7dd97619f4039998734e243871428f85f22fef32f1f76bb68a4eTransfer231449462022-12-03 3:23:403 hrs 12 mins ago0xd0b78cf0e69504154eb9ba884f74fdf9c7125308 IN 0x333d17d3b42bf7930dbc6e852ca7bcf560a6900333.866976171059535 AVAX0.00052525
[ Download CSV Export 
Parent Txn Hash Block From To Value
Loading

Contract Name:
0

Compiler Version
0

Optimization Enabled:
0

Other Settings:
-NA-
Block Transaction Gas Used Reward
Age Block Fee Address BC Fee Address Voting Power Jailed Incoming
Block Uncle Number Difficulty Gas Used Reward
Loading
Make sure to use the "Vote Down" button for any spammy posts, and the "Vote Up" for interesting conversations.